Temperature
18 18 18 18 18 18 18 18 18 18 18 18 18 18 18 18 18 18 18 18 18 17 17 17 17 17 17 16 16 16 16 16 16 16 16 16 16 16 16 16 16 16 15
18 18 18 18 18 18 18 18 18 18 18 18 18 18 18 18 18 17 18 17 17 17 17 17 17 17 17 17 16 16 16 16 16 16 16 16 16 16 16 16 16 16 15
18 18 18 18 18 18 18 18 18 18 18 18 18 18 18 18 17 17 17 17 17 17 17 17 17 17 17 17 17 16 16 16 16 16 16 16 16 16 16 16 16 16 16
18 18 18 18 18 18 18 18 18 18 18 18 18 18 18 18 17 17 17 17 17 17 17 17 17 17 17 17 17 17 17 16 16 16 16 16 16 16 16 16 16 16 16
18 18 18 18 18 18 18 18 18 18 18 18 18 18 18 18 18 17 17 17 17 17 17 17 17 17 17 17 17 17 17 17 16 16 16 16 16 16 16 16 16 16 16
18 18 18 18 18 18 18 18 18 18 18 18 18 18 18 18 18 18 18 17 17 17 17 17 17 17 17 17 17 17 17 17 16 16 16 16 16 16 16 16 16 16 15
18 18 18 18 18 18 18 18 18 18 18 18 18 18 18 18 18 18 18 18 18 17 17 17 17 17 17 17 17 17 17 17 17 16 16 16 16 16 16 16 16 16 15
18 18 18 18 18 18 18 18 18 18 18 18 18 18 18 18 18 18 18 18 18 18 17 17 17 17 17 17 17 17 17 17 17 16 16 16 16 16 16 16 16 16 15
18 18 18 18 18 18 18 18 18 18 18 18 18 18 18 18 18 18 18 18 18 18 18 18 17 17 17 17 17 17 17 17 16 16 16 16 16 16 16 16 16 15 15
18 18 18 18 18 18 18 18 18 18 18 18 18 18 18 18 18 18 18 18 18 18 18 18 18 17 17 17 17 17 17 17 17 17 16 16 16 16 16 16 16 16 15
18 18 18 18 18 18 18 17 18 18 18 18 18 18 18 18 18 18 18 18 18 18 18 18 18 18 17 17 17 17 17 17 17 17 17 16 16 16 16 16 16 15 15
18 18 18 18 18 18 18 17 17 18 18 18 18 18 18 18 18 18 18 18 18 18 18 18 18 18 18 17 17 17 17 17 17 17 17 16 16 16 16 16 16 15 15
18 18 18 18 17 18 17 17 17 17 17 17 18 18 18 18 18 18 18 18 18 18 18 18 18 18 18 17 17 17 17 17 17 17 16 16 16 16 16 16 16 15 15
18 18 17 17 17 17 17 17 17 17 17 17 17 17 17 17 17 17 17 18 18 18 18 18 18 18 17 17 17 17 17 17 16 16 16 16 16 16 16 16 15 15 15
17 17 17 17 17 17 17 17 17 17 17 17 17 17 17 17 17 17 17 17 17 17 17 17 17 17 17 17 17 17 17 16 16 16 16 16 16 16 16 15 15 15 15
17 17 17 17 17 17 17 17 17 17 17 17 17 17 17 17 17 17 17 17 17 17 17 17 17 17 17 16 16 16 16 16 16 16 16 15 15 15 15 15 15 15 15
17 17 17 17 17 17 17 17 17 17 17 17 16 16 16 17 16 16 17 17 17 16 16 16 16 16 16 16 16 16 16 16 15 15 15 15 15 15 15 15 14 14 14
17 17 17 17 17 17 17 17 16 16 16 16 16 16 16 16 16 16 16 16 16 16 16 16 16 16 15 15 15 15 15 15 15 15 15 14 14 14 14 14 14 14 14
17 17 17 17 17 17 17 16 16 16 16 16 16 16 16 16 16 16 16 16 16 16 15 15 15 15 15 15 15 15 15 14 14 14 14 14 14 13 13 13 13 13 13
17 17 16 16 16 16 16 16 16 16 15 15 15 15 15 15 15 15 15 15 15 15 15 15 14 14 14 14 14 14 14 14 14 13 13 13 13 13 13 13 12 12 12
16 16 16 16 16 16 16 15 15 15 15 15 15 15 15 15 15 15 15 15 15 14 14 14 14 14 14 14 14 13 13 13 13 13 12 12 12 12 12 12 12 11 11
16 16 16 16 16 15 15 15 15 15 15 15 14 14 14 14 14 14 14 14 14 14 14 14 13 13 13 13 13 13 13 13 12 12 12 12 11 11 11 11 11 10 10
16 16 15 15 15 15 15 15 15 15 14 14 14 14 14 14 14 13 13 13 13 13 13 13 13 12 12 12 12 12 12 12 12 12 11 11 11 10 10 10 10 10 10
15 15 15 15 15 15 14 14 14 14 14 14 14 13 13 13 13 13 13 13 13 12 12 12 12 12 12 12 12 12 12 11 11 11 11 10 10 10 9 9 9 9 9
15 15 14 14 14 14 14 14 14 13 13 13 13 13 13 13 12 12 12 12 12 12 11 11 11 11 11 11 11 11 11 11 10 10 10 10 9 9 9 9 9 8 8
14 14 14 14 14 13 13 13 13 13 13 12 12 12 12 12 12 12 11 11 11 11 11 11 11 10 10 10 10 10 10 10 10 9 9 9 9 9 8 8 8 8 8
Wind_Speed
2 3 2 1 3 5 5 2 2 3 2 1 1 3 4 6 9 12 12 12 12 11 10 9 9 9 9 9 9 9 8 8 9 8 8 7 7 7 6 6 6 6 5
4 3 2 1 1 1 3 3 2 2 1 1 1 3 2 4 8 11 12 12 12 11 10 10 10 9 9 9 9 9 9 8 8 9 8 8 7 7 7 7 6 6 6
4 3 2 1 1 2 3 2 1 1 1 1 1 1 1 2 4 8 12 12 12 12 12 11 11 10 10 10 9 9 9 9 9 9 9 9 8 8 8 7 7 7 6
4 2 2 2 2 2 2 2 1 1 1 1 1 1 2 2 3 5 8 12 13 13 14 14 13 12 11 11 10 10 11 11 11 10 10 10 10 9 9 9 8 8 8
6 4 2 2 3 1 1 2 2 1 1 1 2 2 2 3 3 5 5 8 11 14 15 16 16 15 14 13 12 12 12 12 12 12 12 11 11 11 11 10 10 10 9
7 5 3 3 3 2 1 1 2 1 1 2 3 2 3 4 4 4 5 7 9 11 14 16 15 15 16 15 14 14 13 13 14 13 13 13 13 13 13 12 12 12 11
5 3 2 3 3 2 2 2 1 2 3 2 1 1 2 4 5 4 4 4 6 8 11 16 15 14 14 18 17 16 15 15 15 15 15 15 15 15 14 14 14 14 13
5 6 4 3 4 2 2 2 2 2 3 3 2 1 1 2 3 6 5 5 5 6 6 11 12 12 12 12 15 18 17 15 15 15 15 16 16 16 16 15 15 15 15
6 5 5 4 3 3 4 4 4 4 3 3 3 2 1 2 2 3 4 4 4 4 4 6 10 11 11 12 13 17 18 17 16 14 14 14 16 16 16 16 16 16 16
5 6 5 4 3 3 3 5 5 4 4 3 3 2 2 2 1 2 2 3 5 5 5 6 7 11 12 11 13 15 19 18 17 15 14 14 14 15 16 16 16 16 17
5 6 5 4 4 3 4 4 2 3 2 3 2 2 2 2 4 3 3 3 3 3 4 4 4 6 11 12 11 14 19 19 18 17 15 15 14 14 14 15 15 16 17
4 5 5 4 4 3 3 3 3 4 3 3 2 2 2 2 3 2 2 3 3 4 4 3 3 4 8 9 9 12 17 18 17 17 16 15 14 14 14 14 14 15 16
4 5 5 3 3 3 3 3 3 3 3 4 3 3 3 3 2 2 2 3 3 3 2 2 2 3 6 7 7 10 13 14 14 14 14 13 13 13 13 13 13 12 12
4 4 4 3 4 3 4 3 3 4 4 4 4 3 3 3 3 2 2 2 3 3 2 2 1 1 2 5 7 10 9 12 12 11 11 10 10 10 10 10 10 9 9
3 4 4 4 3 3 2 3 3 3 3 3 3 3 2 3 3 3 2 2 2 3 4 2 1 1 2 3 6 7 6 9 10 9 8 7 7 7 7 8 7 8 8
1 1 2 2 2 2 3 3 3 3 3 3 2 2 2 3 3 2 2 2 2 3 4 2 2 1 1 2 5 6 6 7 8 8 8 7 7 6 6 6 6 6 6
1 1 0 1 2 2 2 3 3 2 2 3 3 2 2 2 2 2 2 2 3 2 3 3 1 1 1 1 2 3 4 5 5 7 7 6 6 4 3 3 3 3 4
1 1 0 0 1 2 2 2 3 3 3 3 3 2 2 2 2 2 3 3 3 2 2 3 2 1 1 1 1 1 2 2 3 6 7 6 5 5 4 3 2 2 1
2 1 1 0 1 1 0 0 1 1 1 1 1 1 1 1 2 2 2 3 3 3 1 1 2 1 1 1 1 1 2 3 3 6 7 7 6 6 6 5 5 5 4
2 2 2 1 1 1 1 1 1 1 0 1 1 1 2 2 2 2 2 3 3 2 2 1 1 1 0 0 1 0 1 1 1 4 6 7 8 7 7 7 7 6 6
3 3 3 3 3 2 3 2 1 1 1 2 2 3 4 5 6 5 3 3 3 2 2 1 1 1 1 1 1 1 0 0 1 2 2 3 5 6 6 6 6 7 7
4 4 4 4 5 4 6 7 4 3 3 4 4 4 4 6 6 7 9 9 7 4 2 2 2 2 2 2 2 0 0 1 0 1 1 1 3 3 5 6 7 7 7
4 4 4 5 6 7 8 8 7 4 5 5 4 4 4 5 5 4 6 7 8 9 6 3 3 3 3 3 3 2 1 1 1 0 0 1 2 3 5 6 7 8 7
4 5 5 5 5 7 8 7 7 5 6 6 6 5 4 4 4 4 4 6 7 7 7 6 5 4 4 4 3 2 1 1 2 2 2 1 1 2 3 5 5 5 5
6 6 6 6 6 7 9 8 5 5 6 7 7 7 6 6 7 6 5 5 5 4 7 9 9 8 10 11 9 4 3 1 1 3 4 2 1 1 2 1 3 4 3
6 6 7 7 7 7 10 11 7 4 5 5 6 7 10 8 8 7 4 4 4 3 3 5 5 6 7 9 12 7 4 3 2 2 3 3 1 1 1 1 2 3 2
Wind_Direction
127 118 122 170 189 158 160 147 125 107 94 119 131 96 83 104 121 126 138 151 153 156 158 159 160 161 162 163 166 168 169 167 167 166 168 168 169 174 170 166 167 164 163
126 134 150 216 263 105 116 114 122 122 119 21 50 74 65 107 117 133 145 159 165 168 170 172 173 175 177 178 181 181 181 180 179 179 180 183 184 185 182 181 183 181 182
133 158 158 206 202 133 123 109 108 131 170 160 138 133 114 93 120 140 154 164 172 179 182 184 184 185 188 190 192 191 192 191 190 190 192 194 195 195 194 195 196 195 195
165 199 193 201 184 178 166 156 220 162 117 108 147 200 145 144 163 176 172 176 176 179 188 194 192 193 197 200 201 202 202 201 200 201 202 204 205 206 207 209 209 207 207
188 217 185 171 191 201 195 204 162 164 177 197 223 204 200 189 189 207 197 193 182 175 181 192 197 198 202 207 210 210 209 208 209 210 211 213 214 214 216 217 215 215 216
201 214 188 183 212 208 186 138 122 183 216 214 247 204 207 211 200 203 210 208 197 188 180 182 191 203 209 211 214 215 214 213 214 215 217 219 220 219 220 220 220 221 222
211 219 231 174 225 213 184 192 170 209 230 217 246 259 233 224 211 204 215 209 203 199 181 177 190 196 200 213 215 216 217 217 218 219 220 222 224 223 223 224 224 225 226
211 213 208 215 208 199 198 203 194 241 247 212 205 232 276 276 249 219 202 210 209 194 195 190 193 194 194 192 211 215 219 221 222 223 224 226 227 227 228 229 228 228 230
215 233 208 229 219 204 197 207 203 216 243 250 221 183 190 240 259 261 223 211 196 192 208 204 193 193 196 192 199 210 216 220 222 224 226 227 229 230 232 232 232 232 232
214 221 223 223 232 236 201 214 208 207 229 251 253 225 219 193 226 277 277 242 207 201 212 218 205 195 201 199 197 199 208 215 219 224 226 228 229 230 232 233 235 235 236
216 225 221 216 220 232 226 222 189 199 223 243 257 256 252 238 233 227 250 254 243 213 213 216 210 196 199 202 197 198 202 208 214 219 225 228 231 233 234 236 239 240 239
214 220 217 210 218 224 232 225 204 210 224 246 269 282 271 256 255 251 254 256 248 232 216 200 207 195 192 196 205 200 195 204 212 218 223 227 230 232 234 238 242 244 243
208 207 207 198 212 220 225 220 203 226 227 228 235 260 272 266 264 254 252 263 267 258 226 207 216 196 196 175 187 192 189 196 207 215 220 225 228 230 234 238 241 243 244
213 194 189 196 206 216 226 206 214 221 220 226 238 243 269 277 285 283 259 266 282 284 269 248 220 143 168 163 177 179 180 191 199 206 212 218 223 228 231 235 238 241 245
215 184 185 192 203 208 221 208 221 233 220 219 232 233 251 273 277 277 281 276 263 280 282 293 279 167 129 129 152 164 157 176 187 194 199 205 212 218 223 229 234 237 240
258 160 175 193 211 216 213 218 226 230 220 229 229 232 245 270 278 283 286 288 270 253 269 275 285 306 87 122 148 156 150 151 171 181 186 189 194 201 206 213 221 226 230
48 69 174 224 223 216 217 222 230 216 217 230 239 231 241 264 293 309 306 298 289 272 266 279 294 356 12 43 109 139 143 147 147 167 171 173 174 170 174 179 194 209 218
86 74 111 310 271 243 237 229 235 225 217 225 240 246 241 252 258 297 307 303 299 299 275 280 303 339 342 358 94 123 117 150 129 138 148 142 129 118 110 106 108 118 151
87 59 48 14 290 294 267 259 235 222 219 235 271 285 293 298 311 309 306 305 303 297 294 275 272 268 325 329 49 72 67 75 81 101 114 112 108 104 99 95 90 85 85
84 72 43 17 10 24 25 36 88 107 73 27 28 35 29 20 355 327 319 320 312 324 340 317 292 332 16 360 85 116 61 86 89 89 93 104 103 97 92 89 85 84 84
76 68 52 37 31 29 25 19 64 107 74 59 55 60 63 61 55 42 26 11 1 4 1 23 34 35 19 14 332 290 354 137 89 93 111 105 97 93 90 89 88 87 86
66 62 58 53 49 38 35 43 55 56 59 57 56 61 74 68 68 75 68 57 47 37 18 27 30 34 14 1 336 329 199 256 225 98 118 107 112 98 93 90 96 100 98
74 66 63 62 60 43 41 48 55 66 61 57 54 47 49 50 51 65 77 65 54 50 53 60 49 28 16 1 341 331 340 358 355 353 89 130 111 95 99 100 99 95 93
74 66 63 66 64 44 38 46 57 72 66 58 50 50 61 48 43 51 76 79 68 51 55 68 68 49 33 8 353 342 331 73 76 39 25 91 89 85 100 111 112 108 102
76 71 66 62 61 45 31 38 51 88 80 68 56 48 50 55 39 49 79 90 86 81 71 78 77 67 54 42 34 31 23 55 70 44 21 29 38 79 96 113 150 152 143
84 79 71 63 61 53 36 35 38 83 88 85 70 58 54 51 34 37 61 77 75 62 70 71 68 57 54 49 44 37 28 35 56 53 19 22 16 10 70 108 147 162 173
Height
1574 1575 1576 1577 1578 1579 1580 1580 1581 1582 1583 1584 1585 1586 1586 1586 1586 1586 1586 1587 1588 1588 1589 1589 1590 1591 1592 1593 1594 1595 1596 1597 1598 1599 1599 1600 1601 1602 1603 1603 1604 1605 1605
1573 1575 1576 1577 1578 1580 1580 1581 1582 1582 1583 1584 1585 1586 1586 1587 1587 1586 1587 1587 1588 1589 1589 1589 1590 1591 1592 1593 1594 1595 1596 1597 1598 1598 1599 1600 1601 1601 1602 1603 1604 1604 1605
1573 1574 1575 1577 1578 1579 1580 1581 1581 1582 1583 1584 1584 1585 1586 1586 1587 1587 1587 1587 1588 1588 1589 1590 1590 1591 1591 1592 1593 1594 1595 1596 1597 1598 1598 1599 1600 1601 1601 1602 1603 1603 1604
1572 1573 1575 1576 1577 1579 1580 1580 1581 1582 1582 1583 1583 1584 1585 1585 1586 1587 1587 1587 1587 1588 1589 1589 1590 1590 1591 1591 1592 1593 1594 1595 1596 1596 1597 1598 1599 1599 1600 1601 1601 1602 1603
1571 1573 1574 1575 1577 1578 1579 1580 1580 1581 1582 1582 1583 1583 1584 1584 1585 1586 1587 1587 1587 1587 1587 1588 1589 1589 1590 1590 1591 1592 1593 1593 1594 1595 1595 1596 1597 1598 1598 1599 1600 1600 1601
1570 1572 1573 1574 1576 1577 1578 1579 1579 1580 1581 1581 1582 1582 1583 1583 1584 1584 1585 1586 1586 1587 1586 1586 1587 1588 1588 1589 1590 1590 1591 1591 1592 1593 1593 1594 1595 1596 1596 1597 1598 1598 1599
1569 1570 1571 1572 1574 1575 1576 1577 1578 1579 1580 1581 1581 1581 1582 1582 1582 1583 1583 1584 1585 1586 1586 1585 1585 1586 1586 1587 1588 1588 1589 1589 1590 1590 1591 1592 1593 1593 1594 1594 1595 1596 1596
1567 1568 1569 1570 1572 1573 1575 1576 1577 1577 1578 1579 1580 1580 1580 1582 1580 1581 1581 1582 1583 1583 1584 1584 1584 1584 1584 1585 1585 1586 1586 1587 1587 1588 1588 1589 1590 1591 1591 1592 1592 1593 1593
1564 1566 1567 1569 1570 1572 1573 1574 1575 1575 1576 1578 1578 1579 1579 1579 1579 1580 1580 1580 1581 1581 1582 1583 1582 1582 1582 1582 1583 1583 1584 1584 1585 1585 1586 1586 1587 1588 1588 1589 1589 1590 1590
1562 1563 1564 1566 1568 1569 1570 1572 1573 1574 1575 1575 1576 1577 1578 1578 1578 1578 1578 1578 1578 1578 1579 1580 1580 1580 1580 1580 1580 1580 1581 1581 1582 1582 1583 1583 1584 1585 1585 1586 1586 1586 1587
1559 1561 1562 1563 1565 1566 1568 1569 1570 1571 1572 1573 1574 1575 1576 1576 1576 1577 1576 1576 1576 1576 1577 1577 1577 1577 1577 1577 1577 1577 1578 1579 1579 1579 1580 1580 1581 1581 1582 1582 1582 1583 1583
1556 1558 1559 1560 1562 1563 1565 1566 1568 1569 1570 1571 1572 1572 1573 1574 1574 1574 1574 1574 1574 1574 1574 1574 1574 1575 1575 1574 1575 1575 1575 1575 1576 1576 1577 1577 1577 1578 1578 1578 1578 1579 1579
1554 1555 1556 1558 1559 1561 1562 1564 1565 1566 1567 1568 1569 1570 1570 1571 1572 1572 1572 1572 1571 1572 1571 1571 1571 1572 1572 1571 1571 1572 1572 1572 1572 1573 1573 1573 1574 1574 1574 1574 1575 1575 1575
1552 1553 1554 1555 1557 1558 1560 1561 1562 1563 1564 1565 1566 1567 1567 1568 1569 1569 1569 1570 1569 1569 1569 1569 1568 1568 1568 1568 1568 1569 1568 1569 1569 1569 1569 1570 1570 1570 1570 1570 1571 1571 1571
1550 1552 1552 1553 1555 1556 1557 1558 1559 1560 1561 1562 1563 1564 1565 1565 1566 1566 1567 1567 1568 1566 1566 1566 1566 1565 1565 1565 1565 1565 1565 1565 1565 1566 1565 1566 1566 1566 1566 1566 1567 1567 1567
1549 1550 1551 1552 1553 1554 1555 1556 1557 1558 1559 1559 1560 1561 1562 1562 1563 1563 1564 1564 1564 1564 1563 1562 1563 1563 1563 1562 1562 1562 1562 1562 1562 1562 1562 1562 1561 1562 1562 1562 1562 1562 1562
1548 1548 1549 1550 1551 1552 1553 1553 1554 1555 1556 1556 1557 1558 1558 1559 1560 1560 1561 1560 1560 1560 1559 1559 1559 1559 1559 1559 1559 1559 1559 1559 1559 1558 1558 1558 1558 1558 1558 1558 1558 1558 1558
1547 1547 1548 1549 1549 1550 1550 1551 1552 1552 1553 1553 1554 1555 1555 1556 1556 1557 1557 1557 1557 1556 1556 1555 1555 1555 1555 1556 1556 1556 1555 1555 1556 1555 1555 1554 1554 1554 1554 1553 1553 1553 1553
1546 1546 1547 1547 1548 1548 1549 1549 1550 1550 1550 1551 1551 1552 1553 1553 1553 1553 1553 1553 1553 1553 1552 1552 1551 1551 1552 1552 1552 1552 1552 1552 1552 1551 1551 1551 1551 1551 1550 1550 1549 1549 1548
1545 1545 1546 1546 1547 1547 1547 1547 1548 1548 1548 1549 1549 1550 1550 1550 1550 1550 1550 1550 1550 1549 1549 1548 1548 1548 1548 1549 1549 1549 1549 1549 1549 1549 1548 1548 1548 1548 1547 1547 1546 1545 1545
1545 1545 1545 1545 1545 1545 1546 1546 1546 1546 1546 1547 1547 1547 1548 1548 1548 1548 1548 1548 1547 1547 1546 1546 1546 1546 1546 1546 1546 1546 1546 1547 1547 1546 1546 1546 1545 1545 1544 1544 1543 1543 1542
1545 1545 1545 1545 1544 1545 1545 1545 1545 1545 1545 1545 1545 1546 1546 1546 1545 1546 1546 1546 1545 1545 1544 1544 1544 1544 1544 1544 1544 1544 1544 1544 1544 1545 1544 1543 1543 1542 1542 1541 1541 1540 1540
1545 1545 1545 1544 1544 1544 1544 1544 1544 1544 1544 1544 1544 1544 1544 1544 1544 1544 1544 1544 1543 1543 1543 1543 1542 1542 1542 1542 1542 1542 1542 1542 1542 1542 1542 1541 1541 1540 1540 1540 1539 1539 1538
1545 1545 1544 1544 1544 1544 1544 1544 1544 1544 1543 1543 1543 1543 1543 1543 1543 1543 1543 1542 1542 1542 1542 1542 1541 1541 1541 1541 1540 1540 1540 1540 1540 1539 1539 1539 1539 1538 1538 1538 1538 1538 1537
1544 1544 1544 1544 1544 1544 1544 1544 1544 1543 1543 1543 1543 1542 1542 1542 1542 1542 1542 1542 1541 1541 1542 1541 1541 1541 1540 1540 1539 1539 1538 1538 1538 1538 1538 1538 1538 1537 1537 1537 1537 1536 1536
1544 1544 1544 1544 1544 1544 1544 1544 1544 1543 1543 1542 1542 1542 1542 1542 1542 1542 1542 1541 1541 1541 1542 1541 1541 1540 1540 1539 1538 1538 1537 1537 1536 1536 1536 1537 1537 1537 1537 1537 1536 1536 1535